Flag for Austria Weather past 2 weeks in Graz, Styria, Austria

Now
57 °F

Scattered clouds.


Feels Like: 57 °F
Forecast: 51 / 68 °F
Wind: 5 mph from Northwest

Location: Graz-Thalerhof-Flughafen

Current Time: Aug 21, 2014 at 8:46:18 AM

Latest Report: Aug 21, 2014 at 7:50 AM


Visibility: N/A

Pressure: 30.01 "Hg

Humidity: 88%

Dew point: 54 °F

Location of GrazLocation

Historic Weather in Graz — Graph

°F

Graz temperature yesterday

Maximum temperature yesterday: 68 °F (at 1:20 PM)
Minimum temperature yesterday: 54 °F (at 3:20 AM)
Average temperature yesterday: 61 °F

Past Weeks' High & Low Weather Summary

 TemperatureHumidityPressure
High84 °F (Aug 9, 2:50 PM)100% (Aug 7, 4:50 AM)30.09 "Hg (Aug 7, 4:50 AM)
Low48 °F (Aug 16, 4:50 AM)37% (Aug 8, 5:50 PM)29.71 "Hg (Aug 13, 8:20 PM)
Average65 °F79%29.96 "Hg
* Reported Aug 6 7:20 AM — Aug 21 7:50 AM, Graz, Weather by CustomWeather, © 2014

Note: Actual official high and low records may vary slightly from our data, if they occured in-between our weather recording intervals... More about our weather records

Advertising

Graz weather history for previous 24 hours

 ConditionsComfort  
Time TempWeatherWind HumidityBarometerVisibility
7:50 AM
Aug 21
57 °FScattered clouds.5 mph88%30.01 "HgN/A
7:20 AM57 °FPartly sunny.3 mph88%30.01 "HgN/A
6:50 AM55 °FPassing clouds.5 mph94%29.98 "HgN/A
6:20 AM55 °FPartly cloudy.3 mph94%29.98 "HgN/A
5:50 AM55 °FLight rain. Partly cloudy.3 mph94%29.98 "HgN/A
5:20 AM57 °FRain. Mostly cloudy.2 mph94%29.98 "Hg4 mi
4:50 AM57 °FRain. Partly cloudy.2 mph94%29.98 "Hg4 mi
4:20 AM55 °FThunderstorms. Passing clouds.6 mph100%29.98 "Hg4 mi
3:50 AM55 °FThunderstorms. Passing clouds.7 mph100%29.98 "Hg4 mi
3:20 AM57 °FHeavy rain. Passing clouds.2 mph94%30.01 "Hg2 mi
2:50 AM57 °FRain. Passing clouds.6 mph94%29.98 "Hg5 mi
2:20 AM59 °FRain. Passing clouds.2 mph88%29.98 "HgN/A
1:50 AM59 °FOvercast.2 mph88%29.98 "HgN/A
1:20 AM57 °FPassing clouds.3 mph94%29.98 "HgN/A
12:50 AM59 °FOvercast.5 mph88%29.98 "HgN/A
12:20 AM59 °FMostly cloudy.3 mph94%30.01 "HgN/A
11:50 PM
Aug 20
59 °FMostly cloudy.2 mph94%30.01 "HgN/A
11:20 PM59 °FMostly cloudy.2 mph88%30.01 "HgN/A
10:50 PM59 °FMostly cloudy.1 mph94%30.01 "HgN/A
10:20 PM59 °FMostly cloudy.1 mph88%30.01 "HgN/A
9:50 PM59 °FMostly cloudy.3 mph94%30.01 "HgN/A
9:20 PM59 °FMostly cloudy.5 mph94%30.01 "HgN/A
8:50 PM59 °FMore clouds than sun.3 mph94%30.01 "HgN/A
8:20 PM59 °FLight rain. More clouds than sun.2 mph94%30.01 "HgN/A
7:50 PM59 °FBroken clouds.5 mph94%30.01 "HgN/A
7:20 PM61 °FRain showers. Partly sunny.7 mph88%29.98 "Hg5 mi
6:50 PM63 °FLight rain. Mostly cloudy.2 mph83%29.98 "HgN/A
6:20 PM61 °FSprinkles. Mostly cloudy.2 mph94%29.98 "HgN/A
5:50 PM63 °FRain showers. Mostly cloudy.3 mph83%29.98 "HgN/A
5:20 PM64 °FMostly cloudy.7 mph73%29.98 "HgN/A
4:50 PM64 °FBroken clouds.8 mph73%29.98 "HgN/A
4:20 PM66 °FBroken clouds.6 mph68%30.01 "HgN/A
3:50 PM66 °FBroken clouds.7 mph68%30.01 "HgN/A
3:20 PM66 °FBroken clouds.9 mph64%30.01 "HgN/A
2:50 PM66 °FBroken clouds.8 mph64%30.01 "HgN/A
2:20 PM68 °FBroken clouds.8 mph69%30.01 "HgN/A
1:50 PM68 °FBroken clouds.7 mph69%30.01 "HgN/A
1:20 PM68 °FBroken clouds.7 mph73%30.01 "HgN/A
12:50 PM66 °FBroken clouds.7 mph78%30.01 "HgN/A
12:20 PM66 °FBroken clouds.5 mph73%30.01 "HgN/A
11:50 AM66 °FBroken clouds.7 mph73%30.01 "HgN/A
11:20 AM64 °FBroken clouds.7 mph83%30.01 "HgN/A
10:50 AM64 °FBroken clouds.6 mph88%30.01 "HgN/A
10:20 AM64 °FPartly sunny.3 mph88%30.01 "HgN/A
9:50 AM63 °FPartly sunny.1 mph88%30.01 "HgN/A
9:20 AM63 °FPartly sunny.2 mph83%30.01 "HgN/A
8:50 AM61 °FPartly sunny.2 mph88%29.98 "HgN/A
8:20 AM59 °FPartly sunny.1 mph94%29.98 "HgN/A
Weather by CustomWeather, © 2014

See weather overviewHow to use our weather pages